User: anonymous   Login
Location: Caltech
(34.1382°N, 118.1253°W)
Time: 07:33:43
(UTC-07:00)
Language:

MaSat-1 - Orbit

View from above orbital plane
View from above orbital plane
View from above satellite
View from above satellite

Ground track
Ground track

The orbit data is extracted from the following two-line orbital elements,

1 38081U 12006E   14297.61232862  .00290290  23223-4  22026-2 0  5383
2 38081 069.4446 003.8169 0252878 166.0476 194.7866 15.40230710143130
Epoch (UTC): 24 October 2014 14:41:45
Eccentricity: 0.0252878
inclination: 69.4446°
perigee height: 273 km
apogee height: 618 km
right ascension of ascending node: 3.8169°
argument of perigee: 166.0476°
revolutions per day: 15.40230710
mean anomaly at epoch: 194.7866°
orbit number at epoch: 14313

The dashed part of the orbit path shows where the satellite is in the earth's shadow,  

DLR